Regional Weather Roundup
Issued by NWS Wakefield, VA

Home | Current Version | Previous Version | Text Only | Print | Product List | Glossary Off
Versions: 1 2 3 4 5 6 7 8 9 10 11 12 13 14 15 16 17 18 19 20 21 22 23 24 25 26 27 28

000
ASUS41 KAKQ 161515
RWRAKQ

REGIONAL WEATHER ROUNDUP
NATIONAL WEATHER SERVICE WAKEFIELD VA
1000 AM EST MON JAN 16 2017

Note: "fair" indicates few or no clouds below 12,000 feet with no
significant weather and/or obstructions to visibility. * = Denotes
station may not report precipitation (e.g., rain,snow,etc.),
thunder or fog.

VAZ042-051-052>054-056-161600-
NORTHERN VIRGINIA

CITY           SKY/WX    TMP DP  RH WIND       PRES   REMARKS
WASH NATIONAL  CLOUDY    40  28  62 SE3       30.49S
DULLES         CLOUDY    39  26  59 SE6       30.47R
FORT BELVOIR   CLOUDY    40  28  62 E3        30.49R
QUANTICO       CLOUDY    40  35  83 S3        30.50R
FREDERICKSBRG* CLOUDY    40  34  79 SE5       30.48S
STAFFORD*      CLOUDY    39  31  75 SE3       30.52R
WARRENTON      CLOUDY    42  30  64 S5        30.46R
CULPEPER*      CLOUDY    40  36  85 S5        30.48R
MANASSAS*      CLOUDY   N/A N/A N/A S12       30.48R
LEESBURG*      CLOUDY    39  30  70 MISG      30.47R
WINCHESTER     CLOUDY    34  27  75 CALM      30.42S
FRONT ROYAL*   NOT AVBL
LURAY*         CLOUDY    37  32  81 CALM      30.41S
$$

VAZ048-049-060>072-079>083-161600-
CENTRAL AND SOUTH CENTRAL VIRGINIA

CITY           SKY/WX    TMP DP  RH WIND       PRES   REMARKS
RICHMOND       CLOUDY    39  35  86 CALM      30.49R
CHESTERFIELD*  CLOUDY    39  21  48 SW3       30.50R
PETERSBURG*    CLOUDY    37  34  87 CALM      30.51R
HANOVER        CLOUDY    40  35  83 CALM      30.50R
TAPPAHANNOCK*  CLOUDY    40  34  78 CALM      30.49S
QUINTON*       CLOUDY    38  36  91 CALM      30.48R
CHARLOTTSVILLE CLOUDY    41  38  89 S6        30.45R FOG
GORDONSVILLE*  CLOUDY    40  40  99 S3        30.46R FOG
ORANGE*          N/A     41  41 100 CALM      30.48R FOG
LOUISA*        CLOUDY    43  43 100 S3        30.46R FOG
BUMPASS*       CLOUDY    39  39 100 CALM      30.48R
FARMVILLE*     CLOUDY    41  41 100 CALM      30.47R FOG
CREWE*         CLOUDY    38  38 100 SE3       30.48R
FORT PICKETT*  CLOUDY    37  34  87 E3        30.48R
CHASE CITY*    CLOUDY    39  38  95 E5        30.47R
CLARKSVILLE*   CLOUDY    41  34  75 E3        30.47R
SOUTH HILL*    CLOUDY    37  34  89 CALM      30.53R
LAWRENCEVILLE* CLOUDY    37  35  90 E3        30.48R
EMPORIA*       CLOUDY    37  36  93 CALM      30.51R
$$

VAZ088>098-161600-
SOUTHEAST VIRGINIA

CITY           SKY/WX    TMP DP  RH WIND       PRES   REMARKS
NORFOLK        CLOUDY    43  34  70 NE5       30.48R
VIRGINIA BEACH CLOUDY    43  36  76 NE5       30.47R
NORFOLK NAVAL  CLOUDY    43  34  70 E3        30.50R
WEST POINT*    CLOUDY    40  35  81 CALM      30.51R
SALUDA*        CLOUDY    40  35  82 CALM      30.50R
NEWPORT NEWS   CLOUDY    42  31  64 NE5       30.48S
LANGLEY AFB    CLOUDY    42  32  68 E3        30.48R
FORT EUSTIS    CLOUDY    42  36  80 CALM      30.46R
WILLIAMSBURG*  CLOUDY    43  34  70 CALM      30.49R
HR EXEC AP*    CLOUDY    39  36  87 CALM      30.47F
FRANKLIN*      CLOUDY    40  35  83 E5        30.49R
US460-WAKEFLD  CLOUDY    39  35  86 CALM      30.49R
$$

VAZ020-022-025-037-045-161600-
WEST CENTRAL AND SOUTHWEST VIRGINIA

CITY           SKY/WX    TMP DP  RH WIND       PRES   REMARKS
STAUNTON*      CLOUDY    39  37  95 CALM      30.43S FOG
WAYNESBORO*    CLOUDY    39  38  96 S3        30.41R
HOT SPRINGS VA SNOW      43  43 100 SW7       30.33R VSB 1/4
LYNCHBURG      CLOUDY    40  39  97 S3        30.46R
DANVILLE       CLOUDY    44  33  65 E3        30.46R
SOUTH BOSTON*  CLOUDY    42  36  78 E3        30.47R
MARTINSVILLE   CLOUDY    43  35  73 CALM      30.47R
ROANOKE        CLOUDY    40  38  93 SE6       30.45R
BLACKSBURG     SNOW      39  39 100 SE3       30.42R VSB<1/4
DUBLIN*        FOG       42  42 100 E3        30.40R VSB 1/4
MARION*        FOG       49  48  96 E5        30.39R VSB<1/4
HILLSVILLE*    FOG       42  42 100 S5        30.37R VSB 1/4
RICHLANDS*     CLOUDY   N/A N/A N/A CALM      30.33S
WISE*          CLOUDY    54  54 100 CALM      30.35R
ABINGDON*      CLOUDY    56  56 100 E6        30.33S FOG
$$

MDZ021>025-VAZ099-100-161600-
SOUTHERN MARYLAND AND THE DELMARVA PENINSULA

CITY           SKY/WX    TMP DP  RH WIND       PRES   REMARKS
PATUXENT RIVER CLOUDY    39  31  72 E6        30.50R
BAY BRIDGE APT CLOUDY    36  25  64 CALM      30.50R
LEONARDTOWN    CLOUDY    39  30  70 E3        30.50S
DOVER          SUNNY     35  27  71 CALM      30.49R
GEORGETOWN     CLOUDY    38  27  64 CALM      30.51R
EASTON         CLOUDY    37  27  65 E5        30.53R
CAMBRIDGE      CLOUDY    36  28  75 CALM      30.50R
SALISBURY      CLOUDY    37  28  70 E7        30.49R
OCEAN CITY     CLOUDY    40  31  70 VRB3      30.50R
WALLOPS ISLAND CLOUDY    40  33  76 NE9       30.50R
ACCOMACK*      CLOUDY    41  32  71 CALM      30.48S
$$

NCZ012>017-030>032-161600-
NORTH CENTRAL AND EASTERN NORTH CAROLINA

CITY           SKY/WX    TMP DP  RH WIND       PRES   REMARKS
ROANOKE RAPIDS CLOUDY    41  34  75 NE3       30.48R
RALEIGH        CLOUDY    45  23  42 E6        30.45R
ELIZABETH CITY CLOUDY    42  39  89 N7        30.48R
AHOSKIE*         N/A     39  34  83 N3        30.49R
EDENTON*       CLOUDY    44  40  86 CALM      30.48R
CURRITUCK*     CLOUDY    43  39  86 CALM      30.49R
KILL DEVIL HLS NOT AVBL
MANTEO         CLOUDY    45  40  82 NE8       30.45R
CAPE HATTERAS  CLOUDY    50  43  77 VRB6      30.43R
TARBORO*       NOT AVBL
GOLDSBORO      CLOUDY    46  35  67 E7        30.43S
WASHINGTON     CLOUDY    43  35  73 NE5       30.46R HAZE
GREENVILLE     NOT AVBL
NEW BERN       CLOUDY    46  40  79 NE5       30.46R
WILMINGTON     CLOUDY    49  40  71 N7        30.43R
$$

VAZ048-161600-
ELSEWHERE

CITY           SKY/WX    TMP DP  RH WIND       PRES   REMARKS
HARRISBURG PA  CLOUDY    30  25  81 SE3       30.47S HAZE
BALTIMORE      CLOUDY    35  27  72 SE3       30.48S
ANNAPOLIS      CLOUDY    37  27  67 E3        30.50R
ANDREWS AFB    CLOUDY    38  28  67 SE3       30.47R
PHILADELPHIA   CLOUDY    33  22  63 CALM      30.50R
HENDERSON NC   PTSUNNY   39  28  63 E3        30.45R
GREENSBORO     CLOUDY    46  37  71 E5        30.43R
ROCKY MOUNT    CLOUDY    43  32  65 NE3       30.46R
$$

VAZ100-161600-
MARINE

STATION/POSITION TIME  TEMP    WIND        PRES    WAVE   SWELL
                       AIR SEA DIR/SP/G            HT/PER HT/PER
                 (UTC) (F)     (DEG/KT/KT) (MB)    (FT/S) (FT/S)
CAPE MAY NJ      1448   36 40  260/  1/  2 1032.4R
LEWES DE         1442   35 40   50/  5/  6 1032.6R
OCEAN-CITY-INLET 1442   39 42   60/  4/  6 1033.0R
WACHAPREAGUE VA  1448   40 43   30/  6/  7 1032.2R
THOMAS POINT MD  1500   35 38  130/  3/  4   N/A
GOOSES REEF MD   1500   37     120/  4/  6 1033.3
COVE POINT MD    1448   37     160/  2/  3 1033.3R
SOLOMONS ISLAND  1442   38 40   90/  4/  5   N/A
BISHOPS HEAD MD  1448   38 40   70/  3/  4 1033.0R
PINEY POINT MD   1448          130/  4/  4   N/A
POTOMAC MD       1500   38 40  110/  4/  6 1031.8
CAMBRIDGE MD     1448   35 38   70/  5/  5 1032.1R
LEWISETTA VA     1448   39 42   90/  6/  7 1032.2R
RAPPAHANNOCK LGT 1448           30/  3/  4 1032.9R
STINGRAY PT      1450   39      70/  6/  6 1032.8R
YORK RVR RNG VA  1448   41     340/  1/  2 1031.8R
YORKTOWN VA      1448   41 42   50/  2/  3 1032.0R
JAMESTOWN VA     1500   40 43   80/  2/  4   N/A     0
DOMINION TERM VA 1448   40     220/  2/  3 1032.2R
KIPTOPEKE VA     1442      42   30/  3/  5   N/A
CHES BAY BRIDGE  1448   41 42   20/  3/  4 1032.0R
CAPE HENRY VA    1448   41      10/  4/  5   N/A
WILLOUBY STN VA  1448   41      40/  4/  4 1033.0R
S CRANEY ISL VA  1448   41      20/  2/  3 1031.8R
CAPE HENRY BUOY  1442      47                N/A     2/ 8
OFFSHORE WE BUOY 1451      49                N/A     3/11   2/11
64NM E OF VA BCH 1450   50 58   40/ 10/ 14 1030.7R   3/ 8   3/ 8
DUCK PIER NC     1448   45 44   30/ 10/ 11 1030.7R
44100 DUCK FRF   1435      46                N/A     3/11   2/11
44056 DUCK FRF   1430      45                N/A     3/ 8
OREGON INLET NC  1442   47 49   10/  6/ 12 1030.8R
HATTERAS NC      1448           20/  9/ 14   N/A
DIAMOND SHLS NC  1450   58 74   30/ 17/ 19 1029.4R   4/ 5   2/ 8
CAPE LOOKOUT NC  1400   48      20/ 14/ 16 1029.3R
$$




USA.gov is the U.S. government's official web portal to all federal, state and local government web resources and services.